Location: Unspecified
(0.0000°N, 0.0000°E)
Time: 18:41:35
(UTC+00:00)

Amateur Radio Satellites - All Passes

Search period start: 21 December 2014 18:11
Search period end: 22 December 2014 18:11
Location: Unspecified, 0.0000°N, 0.0000°E

Satellite Date Start Highest point End Downlink Frequencies (MHz)
Time Altitude Azimuth
CUBESAT XI-V 21 Dec 18:14:58 18:19:31 64° 102° (ESE) 18:24:06 437.345
CUTE-I 21 Dec 18:16:04 18:21:20 60° 257° (WSW) 18:26:34 437.470
JUGNU 21 Dec 18:27:01 18:32:53 64° 21° (NNE) 18:38:42 437.505
STRAND 1 21 Dec 18:44:45 18:49:48 68° 282° (WNW) 18:54:53 437.568
PRISM 21 Dec 18:55:19 18:56:44 12° 282° (WNW) 18:58:09 437.425
MaSat-1 21 Dec 18:58:38 19:01:18 43° 74° (ENE) 19:04:10 437.345
SRMSAT 21 Dec 19:32:01 19:37:43 50° 21° (NNE) 19:43:26 437.500
DANDE 21 Dec 19:33:10 19:37:30 15° 84° (E) 19:41:42 436.750
SO-50 21 Dec 19:36:57 19:41:07 45° 292° (WNW) 19:45:22 436.795
BRITE-PL 21 Dec 19:39:08 19:41:23 14° 80° (E) 19:43:35 437.365/2234.400
AAUSAT CUBESAT 2 21 Dec 20:00:06 20:01:57 13° 78° (ENE) 20:03:47 437.432
GOMX 1 21 Dec 20:00:30 20:03:21 17° 79° (E) 20:06:07 467.674
HO-68 21 Dec 20:11:11 20:18:07 52° 75° (ENE) 20:25:01 435.675
RS-15 21 Dec 20:12:12 20:16:06 12° 67° (ENE) 20:20:01 29.354- 29.394
CANX-2 21 Dec 20:14:46 20:18:49 45° 78° (ENE) 20:22:52 2200.000
JUGNU 21 Dec 20:16:19 20:21:56 46° 201° (SSW) 20:27:33 437.505
CUSAT 1 21 Dec 20:16:37 20:24:39 46° 84° (E) 20:31:58 437.405
DOVE 4 21 Dec 20:21:05 20:24:23 22° 79° (E) 20:27:37 437.250
COMPASS 1 21 Dec 20:33:51 20:37:55 50° 79° (ENE) 20:41:59 437.405
CINEMA 3 21 Dec 20:39:38 20:42:42 20° 79° (ENE) 20:45:43 145.822/145.860
SEEDS 21 Dec 20:40:33 20:44:46 82° 79° (ENE) 20:48:59 437.485
CUTE 1.7 + AOD 2 21 Dec 20:45:16 20:49:29 69° 259° (WSW) 20:53:42 437.475
DELFI C3 21 Dec 20:45:46 20:48:40 19° 78° (ENE) 20:51:33 145.870
UWE-3 21 Dec 20:53:50 20:55:47 13° 78° (ENE) 20:57:45 435.000/436.395/437.385
DX 1 21 Dec 21:04:29 21:08:24 33° 78° (ENE) 21:12:17 434.975-435.025
DANDE 21 Dec 21:12:12 21:20:53 74° 266° (W) 21:28:54 436.750
BRITE-PL 21 Dec 21:16:08 21:19:43 23° 257° (WSW) 21:23:08 437.365/2234.400
UNISAT 6 21 Dec 21:16:38 21:17:49 11° 102° (ESE) 21:19:00 437.425
HUMSAT D 21 Dec 21:18:07 21:19:23 11° 78° (ENE) 21:20:38 437.325/437.525
SRMSAT 21 Dec 21:21:08 21:26:56 59° 201° (SSW) 21:32:45 437.500
Oscar 11 21 Dec 21:24:50 21:29:09 84° 258° (WSW) 21:33:28 145.826/435.025
AAUSAT CUBESAT 2 21 Dec 21:33:59 21:37:20 24° 258° (WSW) 21:40:42 437.432
UKube-1 21 Dec 21:34:00 21:38:21 88° 79° (ENE) 21:42:41 .
GOMX 1 21 Dec 21:38:19 21:41:14 18° 257° (WSW) 21:44:05 467.674
ISS 21 Dec 21:40:27 21:42:19 15° 54° (NE) 21:44:12 145.825
QB50P1 21 Dec 21:42:52 21:44:58 13° 102° (ESE) 21:47:04 145.935-145.965
ANTELSAT 21 Dec 21:45:44 21:49:48 29° 102° (ESE) 21:53:51 437.575/2403.000
VERMONT LUNAR 21 Dec 21:51:36 21:53:47 15° 138° (SE) 21:55:58 437.305
CUBEBUG 2 21 Dec 21:52:01 21:56:07 61° 258° (WSW) 22:00:12 437.445
ZACube-1 21 Dec 21:58:07 22:02:16 78° 258° (WSW) 22:06:24 437.345
DOVE 4 21 Dec 21:59:53 22:01:54 13° 257° (WSW) 22:03:52 437.250
CUSAT 1 21 Dec 22:00:49 22:07:17 25° 268° (W) 22:13:20 437.405
HO-68 21 Dec 22:01:13 22:05:27 17° 255° (WSW) 22:09:42 435.675
VELOX 1 21 Dec 22:03:08 22:07:29 54° 78° (ENE) 22:11:48 145.980
YUBILEINY 21 Dec 22:06:04 22:11:48 19° 93° (E) 22:17:27 435.215
JUGNU 21 Dec 22:07:13 22:11:17 19° 195° (SSW) 22:15:21 437.505
POPSAT HIP 1 21 Dec 22:09:52 22:13:44 34° 102° (ESE) 22:17:39 437.405
ESTCUBE 1 21 Dec 22:10:17 22:13:40 21° 78° (ENE) 22:17:01 437.505/2401.250
PHONESAT 2.4 21 Dec 22:10:34 22:12:26 13° 139° (SE) 22:14:16 2401.200-2431.200
RS-15 21 Dec 22:16:29 22:28:18 88° 70° (ENE) 22:40:34 29.354- 29.394
CINEMA 3 21 Dec 22:17:24 22:19:39 14° 258° (WSW) 22:21:54 145.822/145.860
TIGRISAT 21 Dec 22:19:55 22:24:38 86° 102° (ESE) 22:29:18 435.000
50 SAT 21 Dec 22:20:40 22:24:39 83° 78° (ENE) 22:28:38 437.505
DELFI C3 21 Dec 22:21:15 22:23:40 15° 258° (WSW) 22:26:05 145.870
FUNcube-1 21 Dec 22:25:00 22:28:40 31° 258° (WSW) 22:32:19 145.935
UWE-3 21 Dec 22:28:53 22:32:05 22° 258° (WSW) 22:35:17 435.000/436.395/437.385
O/OREOS (USA 219) 21 Dec 22:29:09 22:31:49 16° 105° (ESE) 22:34:28 437.305
BUGSAT 1 21 Dec 22:31:04 22:35:04 52° 102° (ESE) 22:39:08 437.445
DUCHIFAT 1 21 Dec 22:36:54 22:41:10 87° 102° (ESE) 22:45:29 145.980
BEESAT 3 21 Dec 22:43:49 22:46:52 20° 68° (ENE) 22:49:53 437.485
AISAT 21 Dec 22:47:13 22:51:15 34° 258° (WSW) 22:55:14 437.250
CUBEBUG 1 21 Dec 22:49:00 22:53:24 69° 78° (ENE) 22:57:45 437.445
UNISAT 6 21 Dec 22:50:02 22:54:20 36° 282° (WNW) 22:58:36 437.425
QB50P2 21 Dec 22:51:19 22:55:30 55° 282° (WNW) 22:59:44 145.880/145.840
HUMSAT D 21 Dec 22:51:32 22:54:55 25° 258° (WSW) 22:58:17 437.325/437.525
POLYITAN 1 21 Dec 23:00:42 23:04:44 40° 282° (WNW) 23:08:48 437.675
NANOSAT C BR1 21 Dec 23:02:00 23:05:59 39° 282° (WNW) 23:10:00 145.865
SRMSAT 21 Dec 23:11:45 23:16:21 23° 197° (SSW) 23:20:59 437.500
ISS 21 Dec 23:16:34 23:18:42 16° 234° (SW) 23:20:50 145.825
QB50P1 21 Dec 23:17:07 23:20:34 24° 282° (WNW) 23:24:03 145.935-145.965
BEESAT 2 21 Dec 23:23:39 23:27:42 70° 68° (ENE) 23:31:43 435.950
ANTELSAT 21 Dec 23:23:59 23:26:18 14° 282° (WNW) 23:28:37 437.575/2403.000
VERMONT LUNAR 21 Dec 23:28:48 23:31:59 31° 317° (NW) 23:35:09 437.305
PCSat 21 Dec 23:40:18 23:45:21 41° 71° (ENE) 23:50:24 145.827
TISAT 1 21 Dec 23:45:56 23:50:09 73° 78° (ENE) 23:54:20 437.305
ESTCUBE 1 21 Dec 23:47:09 23:50:15 18° 258° (WSW) 23:53:21 437.505/2401.250
PHONESAT 2.4 21 Dec 23:47:35 23:51:01 38° 317° (NW) 23:54:25 2401.200-2431.200
SPROUT 21 Dec 23:52:44 23:57:03 83° 78° (ENE) 00:01:19 437.525
YUBILEINY 21 Dec 23:59:45 00:08:12 52° 273° (W) 00:16:37 435.215
JUGNU 22 Dec 00:00:10 00:01:11 10° 186° (S) 00:02:12 437.505
O/OREOS (USA 219) 22 Dec 00:07:32 00:10:56 21° 284° (WNW) 00:14:20 437.305
BEESAT 3 22 Dec 00:22:34 00:24:46 14° 248° (WSW) 00:26:57 437.485
AIST 2 22 Dec 00:34:23 00:38:05 31° 249° (WSW) 00:41:44 435.215
RS-15 22 Dec 00:35:26 00:40:47 14° 246° (WSW) 00:46:14 29.354- 29.394
M-CUBED/EXP-1 PRIME 22 Dec 00:36:29 00:36:56 10° 72° (ENE) 00:37:23 437.505
SWISSCUBE 22 Dec 01:02:23 01:07:12 75° 78° (ENE) 01:11:59 437.505
ITUPSAT 1 22 Dec 01:03:21 01:08:09 68° 78° (ENE) 01:12:55 437.325
SRMSAT 22 Dec 01:04:09 01:06:18 12° 188° (S) 01:08:28 437.500
Oscar 19 22 Dec 01:19:25 01:24:35 76° 283° (WNW) 01:29:45 437.125/150
PCSat 22 Dec 01:26:17 01:28:30 13° 250° (WSW) 01:30:43 145.827
BEESAT 22 Dec 01:27:14 01:31:56 56° 258° (WSW) 01:36:37 436.000
ITAMSAT 1 22 Dec 01:37:52 01:42:51 49° 103° (ESE) 01:47:52 435.822/435.867
Gurwin Techsat 1B 22 Dec 01:40:22 01:44:50 28° 103° (ESE) 01:49:19 435.225
AUBIESAT-1 22 Dec 01:40:34 01:45:02 76° 74° (ENE) 01:49:46 437.475
STARS 22 Dec 02:06:03 02:10:04 36° 78° (ENE) 02:14:04 437.465
M-CUBED/EXP-1 PRIME 22 Dec 02:07:21 02:11:32 41° 255° (WSW) 02:15:58 437.505
KKS-1 22 Dec 02:11:55 02:16:21 77° 78° (ENE) 02:20:45 437.445
HORYU 2 22 Dec 02:20:41 02:24:18 24° 102° (ESE) 02:27:54 437.375
AO-7 22 Dec 02:23:45 02:27:29 14° 107° (ESE) 02:31:12 29.400- 29.500
AIST 1 22 Dec 03:11:35 03:14:51 22° 86° (E) 03:18:08
Gurwin Techsat 1B 22 Dec 03:20:57 03:24:31 19° 283° (WNW) 03:28:06 435.225
MOZHAYETS 4 22 Dec 03:33:30 03:34:27 11° 78° (ENE) 03:35:23
JUGNU 22 Dec 03:37:33 03:41:22 18° 166° (SSE) 03:45:11 437.505
HORYU 2 22 Dec 03:58:08 04:00:41 15° 282° (WNW) 04:03:16 437.375
GONETS M04 22 Dec 04:00:02 04:06:51 25° 93° (E) 04:13:37
AO-7 22 Dec 04:11:32 04:19:49 71° 286° (WNW) 04:28:06 29.400- 29.500
SRMSAT 22 Dec 04:43:32 04:46:57 15° 168° (SSE) 04:50:21 437.500
Cubesat XI-IV 22 Dec 04:47:42 04:48:07 10° 104° (ESE) 04:48:31 437.490
AIST 1 22 Dec 04:50:19 04:52:14 13° 266° (W) 04:54:09
MOZHAYETS 4 22 Dec 05:07:10 05:11:23 35° 258° (WSW) 05:15:36
JAS-2 22 Dec 05:13:35 05:18:29 45° 282° (WNW) 05:23:31 435.910
CUTE-I 22 Dec 05:16:33 05:20:54 26° 103° (ESE) 05:25:17 437.470
PRISM 22 Dec 05:22:21 05:26:03 29° 78° (ENE) 05:29:44 437.425
JUGNU 22 Dec 05:25:16 05:30:47 41° 160° (SSE) 05:36:20 437.505
STRAND 1 22 Dec 05:40:15 05:43:43 18° 77° (ENE) 05:47:09 437.568
GONETS M04 22 Dec 05:55:09 06:03:16 42° 273° (W) 06:11:24
SO-50 22 Dec 06:10:58 06:14:10 17° 67° (ENE) 06:17:20 436.795
Cubesat XI-IV 22 Dec 06:22:46 06:27:52 49° 283° (WNW) 06:33:01 437.490
MaSat-1 22 Dec 06:24:43 06:25:27 11° 110° (ESE) 06:26:09 437.345
SRMSAT 22 Dec 06:31:19 06:36:40 33° 161° (SSE) 06:42:02 437.500
CUBESAT XI-V 22 Dec 06:33:41 06:38:23 70° 258° (WSW) 06:43:02 437.345
CUTE-I 22 Dec 06:56:52 07:00:42 20° 283° (WNW) 07:04:33 437.470
PRISM 22 Dec 07:00:35 07:01:18 10° 257° (WSW) 07:02:01 437.425
JUGNU 22 Dec 07:13:57 07:19:52 73° 339° (NNW) 07:25:49 437.505
STRAND 1 22 Dec 07:18:22 07:22:37 27° 257° (WSW) 07:26:52 437.568
SO-50 22 Dec 07:50:26 07:54:28 26° 248° (WSW) 07:58:28 436.795
BRITE-PL 22 Dec 08:02:29 08:07:23 39° 103° (ESE) 08:12:33 437.365/2234.400
HO-68 22 Dec 08:02:58 08:09:37 43° 105° (ESE) 08:16:17 435.675
AAUSAT CUBESAT 2 22 Dec 08:04:37 08:07:03 15° 102° (ESE) 08:09:29 437.432
SRMSAT 22 Dec 08:19:57 08:25:59 89° 159° (SSE) 08:32:00 437.500
GOMX 1 22 Dec 08:21:37 08:26:36 44° 102° (ESE) 08:31:47 467.674
CANX-2 22 Dec 08:21:47 08:25:59 59° 101° (ESE) 08:30:12 2200.000
DANDE 22 Dec 08:24:19 08:25:29 12° 93° (E) 08:26:42 436.750
COMPASS 1 22 Dec 08:39:17 08:43:27 61° 101° (ESE) 08:47:36 437.405
DOVE 4 22 Dec 08:40:05 08:45:06 52° 102° (ESE) 08:50:16 437.250
SEEDS 22 Dec 08:46:51 08:51:06 80° 282° (WNW) 08:55:20 437.485
DELFI C3 22 Dec 08:47:45 08:50:45 20° 102° (ESE) 08:53:45 145.870
CUTE 1.7 + AOD 2 22 Dec 08:52:24 08:56:34 53° 281° (WNW) 09:00:44 437.475
CINEMA 3 22 Dec 08:54:44 08:59:24 41° 102° (ESE) 09:04:08 145.822/145.860
FUNcube-1 22 Dec 09:00:14 09:02:57 16° 102° (ESE) 09:05:40 145.935
UWE-3 22 Dec 09:03:57 09:07:37 23° 102° (ESE) 09:11:18 435.000/436.395/437.385
JUGNU 22 Dec 09:04:04 09:09:05 28° 342° (NNW) 09:14:07 437.505
CUSAT 1 22 Dec 09:06:26 09:09:00 45° 277° (W) 09:12:00 437.405
DX 1 22 Dec 09:14:11 09:18:20 45° 102° (ESE) 09:22:32 434.975-435.025
HUMSAT D 22 Dec 09:23:00 09:25:34 15° 102° (ESE) 09:28:07 437.325/437.525
AISAT 22 Dec 09:24:57 09:27:37 16° 103° (ESE) 09:30:18 437.250
UNISAT 6 22 Dec 09:29:09 09:31:36 15° 78° (ENE) 09:34:03 437.425
VERMONT LUNAR 22 Dec 09:32:15 09:33:57 13° 42° (NE) 09:35:39 437.305
Oscar 11 22 Dec 09:33:55 09:38:11 61° 282° (WNW) 09:42:28 145.826/435.025
AAUSAT CUBESAT 2 22 Dec 09:39:21 09:42:27 20° 282° (WNW) 09:45:33 437.432
BRITE-PL 22 Dec 09:42:53 09:45:40 14° 281° (W) 09:48:31 437.365/2234.400
UKube-1 22 Dec 09:43:24 09:47:41 68° 282° (WNW) 09:52:00 .
QB50P1 22 Dec 09:49:25 09:52:05 17° 78° (ENE) 09:54:45 145.935-145.965
HO-68 22 Dec 09:52:05 09:57:00 20° 285° (WNW) 10:01:56 435.675
PHONESAT 2.4 22 Dec 09:53:46 09:55:15 12° 42° (NE) 09:56:44 2401.200-2431.200
ANTELSAT 22 Dec 09:59:35 10:03:38 42° 78° (ENE) 10:07:43 437.575/2403.000
RS-15 22 Dec 09:59:57 10:11:18 76° 111° (ESE) 10:22:12 29.354- 29.394
GOMX 1 22 Dec 10:02:31 10:04:28 12° 281° (W) 10:06:28 467.674
CUBEBUG 2 22 Dec 10:04:36 10:09:06 43° 282° (WNW) 10:13:37 437.445
ZACube-1 22 Dec 10:08:17 10:12:47 56° 282° (WNW) 10:17:18 437.345
SRMSAT 22 Dec 10:09:54 10:15:17 34° 341° (NNW) 10:20:39 437.500
VELOX 1 22 Dec 10:15:27 10:19:53 82° 102° (ESE) 10:24:21 145.980
POPSAT HIP 1 22 Dec 10:16:58 10:20:59 42° 78° (ENE) 10:24:57 437.405
50 SAT 22 Dec 10:22:12 10:26:21 88° 101° (E) 10:30:31 437.505
DELFI C3 22 Dec 10:23:34 10:25:45 14° 282° (WNW) 10:27:56 145.870
ESTCUBE 1 22 Dec 10:24:14 10:28:12 31° 102° (ESE) 10:32:11 437.505/2401.250
TIGRISAT 22 Dec 10:33:55 10:38:07 59° 258° (WSW) 10:42:20 435.000
CINEMA 3 22 Dec 10:34:49 10:36:19 11° 282° (WNW) 10:37:50 145.822/145.860
BUGSAT 1 22 Dec 10:35:15 10:39:23 61° 78° (ENE) 10:43:26 437.445
FUNcube-1 22 Dec 10:35:16 10:39:01 25° 282° (WNW) 10:42:46 145.935
YUBILEINY 22 Dec 10:37:14 10:45:08 39° 87° (E) 10:53:04 435.215
O/OREOS (USA 219) 22 Dec 10:38:52 10:42:41 27° 76° (ENE) 10:46:32 437.305
BEESAT 3 22 Dec 10:39:35 10:42:46 23° 112° (ESE) 10:45:57 437.485
UWE-3 22 Dec 10:40:44 10:43:52 18° 282° (WNW) 10:47:01 435.000/436.395/437.385
DUCHIFAT 1 22 Dec 10:43:54 10:48:07 74° 258° (WSW) 10:52:17 145.980
ISS 22 Dec 10:50:34 10:53:23 25° 305° (NW) 10:56:11 145.825
JUGNU 22 Dec 10:55:55 10:58:46 14° 350° (N) 11:01:37 437.505
AIST 2 22 Dec 10:57:10 10:58:51 12° 112° (ESE) 11:00:32 435.215
HUMSAT D 22 Dec 10:57:44 11:01:05 22° 282° (WNW) 11:04:27 437.325/437.525
QB50P2 22 Dec 10:58:51 11:02:52 42° 258° (WSW) 11:06:50 145.880/145.840
CUBEBUG 1 22 Dec 10:59:39 11:03:59 83° 282° (WNW) 11:08:23 437.445
AISAT 22 Dec 11:00:28 11:03:58 23° 282° (WNW) 11:07:30 437.250
UNISAT 6 22 Dec 11:04:53 11:08:08 21° 258° (WSW) 11:11:24 437.425
POLYITAN 1 22 Dec 11:08:34 11:12:17 30° 258° (WSW) 11:15:59 437.675
VERMONT LUNAR 22 Dec 11:08:51 11:12:09 37° 223° (SW) 11:15:27 437.305
NANOSAT C BR1 22 Dec 11:09:19 11:13:02 30° 258° (WSW) 11:16:43 145.865
BEESAT 2 22 Dec 11:20:06 11:24:06 82° 112° (ESE) 11:28:09 435.950
QB50P1 22 Dec 11:24:44 11:27:43 19° 258° (WSW) 11:30:41 145.935-145.965
PHONESAT 2.4 22 Dec 11:30:21 11:33:49 43° 223° (SW) 11:37:19 2401.200-2431.200
TISAT 1 22 Dec 11:52:22 11:56:36 89° 284° (WNW) 12:00:54 437.305
SPROUT 22 Dec 12:01:06 12:05:24 74° 282° (WNW) 12:09:44 437.525
SRMSAT 22 Dec 12:01:33 12:05:00 16° 347° (NNW) 12:08:26 437.500
ESTCUBE 1 22 Dec 12:03:35 12:04:48 11° 282° (WNW) 12:06:01 437.505/2401.250
BEESAT 22 Dec 12:14:03 12:16:35 14° 103° (ESE) 12:19:07 436.000
Oscar 19 22 Dec 12:16:05 12:19:18 17° 77° (ENE) 12:22:31 437.125/150
PCSat 22 Dec 12:16:18 12:21:37 62° 289° (WNW) 12:26:56 145.827
RS-15 22 Dec 12:17:29 12:23:16 16° 293° (WNW) 12:29:02 29.354- 29.394
BEESAT 3 22 Dec 12:18:59 12:20:41 12° 293° (WNW) 12:22:23 437.485
O/OREOS (USA 219) 22 Dec 12:19:44 12:21:49 13° 255° (WSW) 12:23:56 437.305
AIST 2 22 Dec 12:33:47 12:37:11 25° 292° (WNW) 12:40:37 435.215
YUBILEINY 22 Dec 12:34:43 12:41:32 26° 267° (W) 12:48:26 435.215
SWISSCUBE 22 Dec 13:24:54 13:29:31 54° 282° (WNW) 13:34:10 437.505
ITUPSAT 1 22 Dec 13:26:03 13:30:43 60° 282° (WNW) 13:35:25 437.325
AUBIESAT-1 22 Dec 13:45:18 13:48:58 80° 105° (ESE) 13:52:24 437.475
BEESAT 22 Dec 13:50:06 13:54:09 28° 282° (WNW) 13:58:13 436.000
Oscar 19 22 Dec 13:54:00 13:58:22 29° 257° (WSW) 14:02:44 437.125/150
M-CUBED/EXP-1 PRIME 22 Dec 14:12:40 14:15:54 29° 287° (WNW) 14:18:57 437.505
ITAMSAT 1 22 Dec 14:12:55 14:18:03 61° 257° (WSW) 14:23:09 435.822/435.867
STARS 22 Dec 14:17:22 14:21:42 53° 102° (ESE) 14:26:04 437.465
Gurwin Techsat 1B 22 Dec 14:18:07 14:23:27 82° 78° (ENE) 14:28:45 435.225
KKS-1 22 Dec 14:24:46 14:29:13 69° 282° (WNW) 14:33:42 437.445
HORYU 2 22 Dec 14:33:28 14:37:32 36° 78° (ENE) 14:41:36 437.375
JUGNU 22 Dec 14:36:19 14:39:07 13° 10° (N) 14:41:55 437.505
AO-7 22 Dec 14:47:26 14:53:47 25° 73° (ENE) 15:00:06 29.400- 29.500
AIST 1 22 Dec 15:18:04 15:22:01 32° 94° (E) 15:25:56
SRMSAT 22 Dec 15:43:33 15:45:37 12° 8° (N) 15:47:42 437.500
MOZHAYETS 4 22 Dec 15:48:24 15:51:30 18° 102° (ESE) 15:54:36
JUGNU 22 Dec 16:23:49 16:28:49 27° 18° (NNE) 16:33:47 437.505
GONETS M04 22 Dec 16:32:10 16:40:27 50° 87° (E) 16:48:42
AO-7 22 Dec 16:38:27 16:46:11 44° 254° (WSW) 16:53:56 29.400- 29.500
JAS-2 22 Dec 16:43:39 16:51:33 87° 77° (ENE) 16:59:13 435.910
Cubesat XI-IV 22 Dec 17:23:07 17:27:51 32° 77° (ENE) 17:32:31 437.490
MOZHAYETS 4 22 Dec 17:25:04 17:28:27 21° 282° (WNW) 17:31:51
PRISM 22 Dec 17:26:50 17:30:32 33° 102° (ESE) 17:34:14 437.425
SRMSAT 22 Dec 17:31:00 17:35:35 23° 17° (NNE) 17:40:09 437.500
CUTE-I 22 Dec 17:55:10 18:00:31 78° 77° (ENE) 18:05:49 437.470
